Regional Weather Roundup
Issued by NWS Wilmington, NC

Home | Current Version | Previous Version | Text Only | Print | Product List | Glossary On
Versions: 1 2 3 4 5 6 7 8 9 10 11 12 13 14 15 16 17 18 19 20 21 22 23 24 25 26 27
000
ASUS42 KILM 101712
RWRILM
RWRILM
REGIONAL HOURLY WEATHER ROUNDUP
NATIONAL WEATHER SERVICE WILMINGTON NC
1200 PM EST SAT DEC 10 2016

NOTE: "FAIR" INDICATES FEW OR NO CLOUDS BELOW 12,000 FEET WITH NO
SIGNIFICANT WEATHER AND/OR OBSTRUCTIONS TO VISIBILITY.

...............WFO WILMINGTON COUNTY WARNING AREA...............

......COASTAL NC AND SC COUNTIES......

CITY           SKY/WX    TMP DP  RH WIND       PRES   REMARKS
WILMINGTON     SUNNY     42  18  37 CALM      30.52F
N MYRTLE BEACH SUNNY     43  18  36 VRB5      30.52F
MYRTLE BEACH   SUNNY     43  18  36 NE9       30.55F

......INLAND NC AND SC COUNTIES.......

CITY           SKY/WX    TMP DP  RH WIND       PRES   REMARKS
LUMBERTON      SUNNY     40  17  39 NE5       30.54F
ELIZABETHTOWN  SUNNY     38  19  46 CALM      30.54F
WHITEVILLE     SUNNY     39  17  42 CALM      30.53F
FLORENCE       SUNNY     40  17  39 VRB3      30.55F
DARLINGTON     SUNNY     40  17  39 VRB5      30.56F
KINGSTREE      FAIR      39  18  41 W6        30.55F WCI  35
HARTSVILLE     FAIR      37  18  44 CALM      30.54F
BENNETTSVILLE  FAIR      41  19  42 CALM      30.56F
CONWAY         FAIR      41  19  42 NE6       30.54F
GEORGETOWN     NOT AVBL
MARION         FAIR      39  18  41 CALM      30.55F

....................REST OF NORTH CAROLINA......................

.........EASTERN NC.........

CITY           SKY/WX    TMP DP  RH WIND       PRES   REMARKS
CAPE HATTERAS  SUNNY     43  20  39 VRB5      30.49F
JACKSONVILLE   SUNNY     39  19  44 VRB6      30.53F WCI  35
MOREHEAD CITY  SUNNY     44  24  45 VRB5      30.50F
KENANSVILLE    SUNNY     37  18  44 NE3       30.54F
NEW BERN       SUNNY     40  19  43 VRB3      30.53F
ELIZABETH CITY SUNNY     40  20  44 N6        30.50F

.........CENTRAL NC.........

CITY           SKY/WX    TMP DP  RH WIND       PRES   REMARKS
RALEIGH DURHAM SUNNY     38  12  34 CALM      30.53F
ROCKY MOUNT    SUNNY     37  16  42 CALM      30.53F
ROANOKE RAPIDS NOT AVBL
FAYETTEVILLE   SUNNY     39  15  37 VRB6      30.54F WCI  35
HOFFMAN        SUNNY     38  13  35 NW5       30.54F WCI  35

.........WESTERN NC.........

CITY           SKY/WX    TMP DP  RH WIND       PRES   REMARKS
CHARLOTTE      MOSUNNY   39  15  37 VRB3      30.53F
GREENSBORO     SUNNY     36  13  38 VRB7      30.49F WCI  30
HICKORY        NOT AVBL
BOONE          NOT AVBL
ASHEVILLE      NOT AVBL

.....................REST OF SOUTH CAROLINA.....................

.........EASTERN SC.........

CITY           SKY/WX    TMP DP  RH WIND       PRES   REMARKS
CHARLESTON     SUNNY     47  20  34 VRB6      30.52F
BEAUFORT MCAS  SUNNY     50  22  33 N7        30.52F
HILTON HEAD    SUNNY     54  27  35 N10       30.51F

.........CENTRAL SC.........

CITY           SKY/WX    TMP DP  RH WIND       PRES   REMARKS
COLUMBIA       SUNNY     42  17  36 CALM      30.55F
ORANGEBURG     SUNNY     42  20  41 NE7       30.55F
SUMTER SHAW    SUNNY     40  16  37 VRB5      30.54F

.........WESTERN SC.........

CITY           SKY/WX    TMP DP  RH WIND       PRES   REMARKS
GREENVILLE     NOT AVBL
ROCK HILL      SUNNY     39  16  39 CALM      30.53F
ANDERSON       SUNNY     40  16  37 VRB3      30.53F
CLEMSON        NOT AVBL
GREENWOOD      SUNNY     39  16  39 CALM      30.55F


...................COASTAL AND OFFSHORE REPORTS..................

................LOCAL PIERS AND NC RESERVE................


STATION/POSITION TIME  SKY/WX   TEMP    WIND        PRES    VSBY
                                AIR SEA DIR/SP/G
                 (UTC)          (F)     (DEG/KT/KT) (MB)    (MI)
JOHNY MRCER PIER 1648            40 59   60/  3/  5 1032.1F
NC RESRV MASNBRO 1545            40      70/  4     1034.0
OCEAN CREST PIER NOT AVBL
SPRINGMAID  PIER NOT AVBL


................COASTAL AND OFFSHORE BUOYS................


STATION/POSITION TIME  SKY/WX   TEMP    WIND        PRES    VSBY
                                AIR SEA DIR/SP/G
                 (UTC)          (F)     (DEG/KT/KT) (MB)    (MI)
DIMNDSHOAL 41025 1650            42 77  330/ 12/ 17 1032.3F
WVE H/P(F/S)=  5/ 9 SWL H/P/D(F/S/D)=  5/ 60/ 9

CAPE LOOKOUT     1700            40     350/  5/  8 1032.4F
ONSLOW BAY 41036 NOT AVBL
ONSLOW BAY 41064 1608            43 69   40/  4/ 10 1033.8F
ONSLOW BAY 41159 1643               69                N/A
WVE H/P(F/S)=  3/ 4

5SE WRITBC 41038 1608            37 60   10/ 10/ 16 1034.1F
MASNBO INL 41110 1629               60                N/A
WVE H/P(F/S)=  2/ 4

WILM HARBR 41108 1656               59                N/A
WVE H/P(F/S)=  2/ 5

27SE WRITB 41037 1608            44 69   10/  6/ 12 1033.6F
FRYING PAN 41013 1700            46 72  360/ 10/ 14 1032.5
SUNST NRSH 41024 1608            39 58   20/  4/  8 1034.3F
CAPRS NRSH 41029 1608            44 59   40/ 14/ 19 1033.8F
EDISTO     41004 1650            50 73   30/ 12/ 17 1032.2F
WVE H/P(F/S)=  3/ 5 SWL H/P/D(F/S/D)=  2/ 80/ 8



..........OFFSHORE BUOYS BEYOND 100 NM OFFSHORE...........
.....IN A TRIANGLE---HAT TO BERMUDA TO BAHAMAS TO HAT.....


STATION/POSITION TIME  SKY/WX   TEMP    WIND        PRES    VSBY
                                AIR SEA DIR/SP/G
                 (UTC)          (F)     (DEG/KT/KT) (MB)    (MI)
150E HAT   41001 NOT AVBL
W BERMUDA  41048 1650            62 72  310/ 12/ 17 1026.4F
WVE H/P(F/S)=  8/ 9 SWL H/P/D(F/S/D)=  7/350/ 9

ATLANTIC S 41049 1650            73 76   30/ 17/ 19 1022.8F
WVE H/P(F/S)=  4/ 7 SWL H/P/D(F/S/D)=  3/320/ 7

E BAHAMAS  41046 1700            77 79   40/  8/ 10 1021.6
NE BAHAMAS 41047 1700            71 77   40/ 19/ 23 1024.3
120E CANVRL41010 NOT AVBL

END




USA.gov is the U.S. government's official web portal to all federal, state and local government web resources and services.